Home > Weather > Osøyro > Past weeks

Flag for Norway Past Weather in Osøyro, Norway — Yesterday and Last 2 Weeks

Now
N/A

Low clouds.


Feels Like: N/A
Forecast: 55 / 61 °F
Wind: N/A

Location: Bergen / Flesland

Current Time: Aug 25, 2016 at 3:19:22 AM

Latest Report: Aug 25, 2016 at 2:00 AM


Visibility: 9 mi

Pressure: N/A

Humidity: N/A

Dew Point: N/A

Location of OsøyroLocation

Past Weather in Osøyro — Graph

°F

Osøyro Temperature Yesterday

Maximum temperature yesterday: 61 °F (at 4:00 PM)
Minimum temperature yesterday: 57 °F (at 11:00 PM)
Average temperature yesterday: 59 °F

High & Low Weather Summary for the Past Weeks

 TemperatureHumidityPressure
High69 °F (Aug 21, 12:00 PM)98% (Aug 24, 6:00 PM)30.24 "Hg (Aug 24, 6:00 PM)
Low47 °F (Aug 11, 11:00 PM)49% (Aug 20, 2:00 PM)29.65 "Hg (Aug 12, 5:00 PM)
Average57 °F85%29.94 "Hg
* Reported Aug 10 2:00 AM — Aug 25 2:00 AM, Osøyro, Weather by CustomWeather, © 2016

Note: Actual official high and low records may vary slightly from our data, if they occured in-between our weather recording intervals... More about our weather records

Advertising

Osøyro Weather History for the Previous 24 Hours

Scroll right to see more
 ConditionsComfort  
Time TempWeatherWind HumidityBarometerVisibility
2:00 AM
Thu, Aug 25
N/ALow clouds.N/AN/AN/A9 mi
1:00 AM58 °FLow clouds.3 mph97%30.12 "Hg6 mi
12:00 AMN/ALow clouds.N/AN/AN/A10 mi
11:00 PM
Wed, Aug 24
57 °FLow clouds.5 mph97%30.12 "Hg15 mi
10:00 PM59 °FLow clouds.2 mph98%30.11 "Hg12 mi
9:00 PM60 °FLow clouds.2 mph98%30.10 "Hg7 mi
8:00 PMN/AOvercast.N/AN/AN/A11 mi
7:00 PM59 °FLow clouds.2 mph98%30.10 "Hg3 mi
6:00 PM60 °FLow clouds.3 mph98%30.09 "Hg0 mi
5:00 PM61 °FLight rain. Low clouds.5 mph97%30.09 "Hg2 mi
4:00 PM61 °FLow clouds.9 mph96%30.08 "Hg6 mi
3:00 PM61 °FRain. Low clouds.6 mph95%30.09 "Hg7 mi
2:00 PMN/ARain.N/AN/AN/A5 mi
1:00 PM60 °FRain. Overcast.7 mph93%30.06 "Hg4 mi
12:00 PM59 °FRain. Overcast.6 mph94%30.10 "Hg5 mi
11:00 AMN/ARain.N/AN/AN/A2 mi
10:00 AM60 °FRain. Low clouds.2 mph88%30.14 "Hg2 mi
9:00 AMN/AOvercast.N/AN/AN/A28 mi
8:00 AM59 °FOvercast.2 mph89%30.16 "Hg25 mi
7:00 AM59 °FOvercast.3 mph89%30.18 "Hg25 mi
6:00 AM59 °FOvercast.5 mph89%30.18 "Hg25 mi
5:00 AMN/AOvercast.N/AN/AN/A25 mi
4:00 AM59 °FOvercast.6 mph87%30.21 "Hg31 mi
3:00 AM59 °FOvercast.5 mph87%30.23 "Hg31 mi
Weather by CustomWeather, © 2016

See weather overviewHow to use our weather pages